Torna al catalogo

CZ-6A DEB

AttivoSSO
NORAD 54272·DEBRIS·🇨🇳 China

Lanciato Nov 11, 2022 da Taiyuan Satellite Launch Center

Loading…

Prossimi Passaggi (prossime 24 ore)

TLE

AggiornatoSource: Space-Track

Epoca: Sep 14, 2026, 20:51 UTC

1 54272U 22151P   26257.86885553  .00000475  00000-0  23257-3 0  9999
2 54272  98.8358 292.4199 0027004 281.1521  78.6621 14.22451165198911

Traccia CZ-6A DEB in tempo reale con AllMySat

Download on the App Store